[[{"header":{"parameterUnit":"m.s-1","parameterCategory":1,"la1":30.2991,"la2":30.254,"lo1":-89.0895,"lo2":-89.0444,"dy":0.0017,"dx":0.0017,"nx":28,"ny":28,"refTime":"2025-04-24T03:00:00:Z","depth":0,"parameterNumber":2,"parameterNumberName":"U-component_of_WINDS"},"data":[0,0,0,0,0,0,0,0,0,0,0,0,0,0,0,0,0,0,0,0,0,0,0,0,0,0,0,0,0,0,0,0,0,0,0,0,0,0,0,0,0,0,0,0,0,0,0,0,0,0,0,0,0,0,0,0,0,0,-1.2122,-1.2123,0,-1.2163,-1.2163,-1.2164,-1.2174,-1.2174,-1.2173,-1.2173,-1.2216,-1.2217,-1.2219,0,0,0,0,0,0,0,0,0,0,0,0,0,-1.2055,-1.2056,-1.2122,-1.2123,-1.2123,-1.2163,-1.2163,-1.2164,-1.2174,-1.2174,-1.2173,-1.2173,-1.2215,-1.2217,-1.2219,0,0,0,0,0,0,0,0,0,0,0,0,0,-1.2089,-1.2057,-1.2122,-1.2133,-1.2134,-1.2163,-1.2163,-1.2164,-1.2174,-1.2174,-1.2173,-1.2173,-1.2215,-1.2217,-1.2219,-1.224,0,0,-1.2225,-1.2226,0,0,0,0,0,0,0,0,-1.2087,-1.2091,-1.2131,-1.2132,-1.2134,-1.2163,-1.2155,-1.2189,-1.2174,-1.2159,-1.2173,-1.2173,-1.2199,-1.2202,-1.2211,-1.2242,-1.2243,-1.2226,-1.2227,-1.2228,-1.2228,0,0,0,0,0,0,0,-1.2085,-1.209,-1.2138,-1.2131,-1.2133,-1.2136,-1.2141,-1.2162,-1.2181,-1.216,-1.2161,-1.2166,-1.2199,-1.2209,-1.2212,-1.2244,-1.2225,-1.2227,-1.2229,-1.2229,-1.2295,-1.2295,0,0,0,0,0,0,-1.208,-1.2088,-1.2137,-1.214,-1.2109,-1.2138,-1.2143,-1.2154,-1.218,-1.2184,-1.2166,-1.2166,-1.2205,-1.2209,-1.2213,-1.2239,-1.2228,-1.223,-1.2231,-1.2294,-1.2295,-1.2295,0,0,0,0,0,0,-1.2079,-1.2085,-1.2135,-1.2114,-1.2121,-1.214,-1.2152,-1.2155,-1.2164,-1.2185,-1.2188,-1.2172,-1.2205,-1.221,-1.2233,-1.2241,-1.2231,-1.2232,-1.2294,-1.2294,-1.2295,-1.2291,0,0,0,0,0,0,-1.2077,-1.2084,-1.2092,-1.2114,-1.2122,-1.2154,-1.2152,-1.2156,-1.2167,-1.2168,-1.2191,-1.2194,-1.2205,-1.223,-1.2235,-1.2243,-1.2234,-1.2293,-1.2294,-1.2295,-1.2291,-1.2292,-1.2292,0,0,0,0,0,-1.2074,-1.2089,-1.2092,-1.2098,-1.2131,-1.2154,-1.2159,-1.217,-1.2168,-1.2176,-1.2189,-1.2194,-1.2239,-1.2232,-1.2238,-1.2247,-1.2293,-1.2294,-1.2295,-1.229,-1.2291,-1.2292,0,0,0,0,0,0,-1.2067,-1.2092,-1.2096,-1.2118,-1.2134,-1.2156,-1.2166,-1.2171,-1.2189,-1.2188,-1.2203,-1.2208,-1.223,-1.2241,-1.2232,-1.2269,-1.2266,-1.2268,-1.226,-1.2262,-1.2263,-1.2259,-1.2236,0,0,0,0,0,-1.2068,-1.2084,-1.2105,-1.2123,-1.2131,-1.2147,-1.2158,-1.2165,-1.2183,-1.219,-1.2205,-1.2222,-1.224,-1.2252,-1.227,-1.2293,-1.2298,-1.2302,-1.2303,-1.2303,-1.2305,-1.2319,-1.2321,-1.2299,-1.2299,-1.2299,0,0,-1.2071,-1.2086,-1.2095,-1.2122,-1.2135,-1.2152,-1.2153,-1.2171,-1.2183,-1.2192,-1.2215,-1.2226,-1.2247,-1.2269,-1.228,-1.228,-1.2312,-1.2305,-1.2305,-1.2307,-1.232,-1.2322,-1.2324,-1.23,-1.23,-1.2299,0,0,-1.2083,-1.2096,-1.2113,-1.2126,-1.2146,-1.2157,-1.2161,-1.2183,-1.2191,-1.2213,-1.222,-1.2236,-1.2267,-1.2281,-1.2292,-1.2311,-1.2316,-1.2317,-1.2321,-1.2334,-1.2336,-1.2337,-1.2344,-1.2346,-1.2318,-1.2318,-1.2318,0,-1.2083,-1.2108,-1.212,-1.2138,-1.2149,-1.2158,-1.2175,-1.2188,-1.2213,-1.2221,-1.222,-1.2259,-1.2273,-1.2299,-1.2304,-1.2313,-1.2318,-1.2314,-1.2334,-1.2336,-1.2338,-1.2344,-1.2347,-1.2318,-1.2318,-1.2318,-1.2318,0,-1.2108,-1.2125,-1.2136,-1.2159,-1.2172,-1.2189,-1.2204,-1.2216,-1.2223,-1.2234,-1.2257,-1.2275,-1.2296,-1.2304,-1.231,-1.2331,-1.233,-1.2331,-1.2329,-1.2339,-1.2346,-1.2348,-1.2318,-1.2318,-1.2318,-1.2318,0,0,-1.2116,-1.2147,-1.215,-1.2161,-1.2184,-1.2198,-1.2216,-1.2237,-1.2247,-1.2264,-1.2279,-1.2306,-1.2307,-1.232,-1.2329,-1.234,-1.2354,-1.234,-1.2341,-1.2342,-1.2378,-1.2376,-1.2379,-1.2357,-1.2358,-1.2358,-1.2376,0,-1.2132,-1.2163,-1.2174,-1.22,-1.2216,-1.2226,-1.2241,-1.2257,-1.2269,-1.2285,-1.2297,-1.2316,-1.2316,-1.2324,-1.2336,-1.2349,-1.2361,-1.2348,-1.2372,-1.2373,-1.2366,-1.2382,-1.2381,-1.2397,-1.2379,-1.2379,-1.2379,0,-1.2153,-1.217,-1.2198,-1.2219,-1.2226,-1.224,-1.226,-1.2275,-1.2294,-1.2301,-1.2316,-1.2324,-1.2343,-1.234,-1.2367,-1.2359,-1.2369,-1.2377,-1.2378,-1.2381,-1.2376,-1.2385,-1.2402,-1.2404,-1.2383,-1.2383,-1.2383,0,-1.2157,-1.2187,-1.2207,-1.2216,-1.2241,-1.2251,-1.2262,-1.228,-1.2292,-1.231,-1.2318,-1.2338,-1.2349,-1.2365,-1.2379,-1.2375,-1.2405,-1.2402,-1.2412,-1.2411,-1.2417,-1.2416,-1.2436,-1.2425,-1.2424,-1.2424,-1.2424,0,-1.2172,-1.2189,-1.2209,-1.2221,-1.224,-1.2253,-1.2272,-1.2283,-1.23,-1.2315,-1.2325,-1.2339,-1.2356,-1.2373,-1.2384,-1.2405,-1.241,-1.2417,-1.2419,-1.2416,-1.2415,-1.2422,-1.2421,-1.2425,-1.2425,-1.2425,-1.2425,0,-1.2179,-1.2193,-1.2215,-1.2238,-1.2244,-1.2256,-1.2276,-1.2289,-1.23,-1.232,-1.2325,-1.2344,-1.2364,-1.2379,-1.2405,-1.2413,-1.2435,-1.2438,-1.2428,-1.243,-1.2438,-1.2437,-1.2463,-1.2467,-1.2453,-1.2453,-1.2453,0,-1.2188,-1.22,-1.2224,-1.2234,-1.2245,-1.2262,-1.2275,-1.2289,-1.2301,-1.2324,-1.2334,-1.2355,-1.2372,-1.2404,-1.242,-1.244,-1.2444,-1.2452,-1.2447,-1.2443,-1.2444,-1.2443,-1.2444,-1.2452,-1.2452,-1.2452,-1.2452,0,-1.2202,-1.2208,-1.2225,-1.2244,-1.2258,-1.2274,-1.229,-1.2299,-1.2316,-1.233,-1.235,-1.2363,-1.239,-1.2411,-1.2433,-1.2445,-1.2452,-1.2454,-1.2457,-1.2453,-1.2447,-1.245,-1.243,-1.2453,-1.2453,-1.2453,-1.2453,-1.2453,-1.221,-1.2221,-1.224,-1.2258,-1.2272,-1.2287,-1.23,-1.2313,-1.233,-1.2353,-1.236,-1.2381,-1.2401,-1.2431,-1.2443,-1.2461,-1.2461,-1.2465,-1.2466,-1.2467,-1.2467,-1.2444,-1.2465,-1.2465,-1.2465,-1.2465,-1.2465,0,-1.2224,-1.2236,-1.2253,-1.2275,-1.229,-1.2294,-1.2313,-1.2325,-1.2343,-1.236,-1.2377,-1.2401,-1.2421,-1.2439,-1.246,-1.247,-1.2474,-1.2475,-1.2475,-1.2477,-1.2466,-1.246,-1.2472,-1.2472,-1.2472,-1.2472,-1.2472,-1.2472,-1.2233,-1.2253,-1.2262,-1.2289,-1.2301,-1.2321,-1.2332,-1.2346,-1.2359,-1.2385,-1.2402,-1.2413,-1.2431,-1.2453,-1.2472,-1.2477,-1.2484,-1.2485,-1.2491,-1.2479,-1.2478,-1.2477,-1.2473,-1.2487,-1.2487,-1.2501,-1.2501,-1.2501]},{"header":{"parameterUnit":"m.s-1","parameterCategory":1,"la1":30.2991,"la2":30.254,"lo1":-89.0895,"lo2":-89.0444,"dy":0.0017,"dx":0.0017,"nx":28,"ny":28,"refTime":"2025-04-24T03:00:00:Z","depth":0,"parameterNumber":3,"parameterNumberName":"V-component_of_WINDS"},"data":[0,0,0,0,0,0,0,0,0,0,0,0,0,0,0,0,0,0,0,0,0,0,0,0,0,0,0,0,0,0,0,0,0,0,0,0,0,0,0,0,0,0,0,0,0,0,0,0,0,0,0,0,0,0,0,0,0,0,2.5542,2.5542,0,2.5514,2.5513,2.5513,2.5457,2.5456,2.5455,2.5454,2.5426,2.5426,2.5426,0,0,0,0,0,0,0,0,0,0,0,0,0,2.555,2.555,2.5542,2.5542,2.5542,2.5514,2.5513,2.5513,2.5458,2.5456,2.5455,2.5454,2.5426,2.5426,2.5426,0,0,0,0,0,0,0,0,0,0,0,0,0,2.5537,2.555,2.5542,2.5511,2.5507,2.5514,2.5513,2.5513,2.5458,2.5456,2.5455,2.5453,2.5426,2.5426,2.5427,2.5462,0,0,2.5428,2.5428,0,0,0,0,0,0,0,0,2.5538,2.5536,2.5516,2.5513,2.5509,2.5487,2.5506,2.5496,2.5458,2.5477,2.5454,2.5452,2.5448,2.5446,2.5445,2.546,2.5459,2.5428,2.5428,2.5428,2.5428,0,0,0,0,0,0,0,2.5539,2.5537,2.5531,2.5515,2.5511,2.5498,2.5494,2.5504,2.5472,2.5475,2.5471,2.5468,2.5446,2.5444,2.5443,2.5459,2.5428,2.5428,2.5428,2.5429,2.5502,2.5504,0,0,0,0,0,0,2.5544,2.5539,2.5532,2.553,2.552,2.5499,2.5495,2.5496,2.5472,2.5466,2.547,2.5466,2.5444,2.5443,2.5442,2.5482,2.5428,2.5429,2.5429,2.5501,2.5503,2.5505,0,0,0,0,0,0,2.5544,2.5544,2.5533,2.5533,2.5531,2.5501,2.5502,2.5496,2.5495,2.5468,2.5462,2.5474,2.5443,2.5442,2.5457,2.548,2.5429,2.5429,2.5499,2.5501,2.5504,2.5562,0,0,0,0,0,0,2.5545,2.5544,2.5557,2.5534,2.5531,2.5548,2.5504,2.5497,2.5496,2.549,2.547,2.5465,2.5442,2.5457,2.5458,2.548,2.5429,2.5496,2.55,2.5503,2.5557,2.5566,2.5573,0,0,0,0,0,2.5545,2.5575,2.5558,2.5558,2.5546,2.555,2.5548,2.552,2.5498,2.551,2.5493,2.5466,2.5478,2.5459,2.5459,2.5482,2.5495,2.5499,2.5503,2.5554,2.5564,2.5573,0,0,0,0,0,0,2.5602,2.5571,2.5552,2.5575,2.5565,2.554,2.5556,2.5532,2.5529,2.5524,2.549,2.5486,2.5506,2.5495,2.5475,2.5515,2.5482,2.5486,2.5521,2.553,2.5538,2.554,2.543,0,0,0,0,0,2.5617,2.5622,2.5595,2.5618,2.5614,2.5586,2.5586,2.5566,2.5554,2.555,2.5534,2.5524,2.5526,2.5527,2.5527,2.5556,2.5551,2.5571,2.5579,2.5586,2.559,2.5604,2.5613,2.5517,2.5517,2.5517,0,0,2.5648,2.5632,2.5637,2.5628,2.5619,2.5625,2.5583,2.5591,2.5595,2.5551,2.5565,2.5553,2.554,2.5562,2.5571,2.5554,2.5615,2.5591,2.5596,2.5596,2.5609,2.5618,2.5626,2.552,2.552,2.5519,0,0,2.5708,2.5696,2.5714,2.5705,2.569,2.5672,2.5676,2.5655,2.5645,2.5658,2.5625,2.563,2.5633,2.5626,2.5622,2.568,2.5655,2.5681,2.5721,2.5736,2.5743,2.575,2.577,2.5778,2.5685,2.5685,2.5685,0,2.5749,2.5756,2.5726,2.5736,2.5734,2.5694,2.5712,2.5705,2.5691,2.5691,2.5672,2.5675,2.5664,2.5683,2.5698,2.5696,2.57,2.5683,2.5744,2.5751,2.5756,2.5775,2.5783,2.5688,2.5688,2.5688,2.5687,0,2.5807,2.5813,2.5829,2.5817,2.5816,2.583,2.5802,2.5805,2.5785,2.5769,2.5783,2.5768,2.5764,2.5767,2.5748,2.5784,2.5774,2.575,2.5717,2.5769,2.5787,2.5794,2.5693,2.5692,2.5691,2.569,0,0,2.5901,2.5872,2.5879,2.5873,2.5854,2.5858,2.5871,2.5867,2.587,2.5862,2.5872,2.5876,2.5854,2.585,2.583,2.5842,2.5889,2.5817,2.5816,2.5831,2.5929,2.5947,2.5956,2.5872,2.5874,2.5875,2.593,0,2.5957,2.5977,2.595,2.5975,2.5981,2.5943,2.5954,2.5945,2.593,2.5932,2.5916,2.5919,2.589,2.5887,2.5898,2.5881,2.5908,2.5877,2.5882,2.5882,2.5886,2.5965,2.5984,2.6037,2.5937,2.5938,2.5939,0,2.6025,2.602,2.6046,2.6026,2.6027,2.6038,2.6032,2.6035,2.6023,2.6011,2.6007,2.5982,2.5994,2.5962,2.5977,2.5956,2.5956,2.5949,2.595,2.5949,2.5913,2.5966,2.6053,2.6061,2.5949,2.5948,2.5948,0,2.6091,2.6091,2.6107,2.6103,2.608,2.6088,2.6079,2.6065,2.6065,2.606,2.6059,2.6056,2.6055,2.6053,2.6028,2.6007,2.6047,2.6012,2.6037,2.6038,2.6047,2.6047,2.6135,2.6048,2.6048,2.6048,2.6048,0,2.6156,2.6173,2.6136,2.6146,2.6164,2.6134,2.6153,2.614,2.6129,2.6135,2.6103,2.611,2.6077,2.6081,2.6062,2.6077,2.6077,2.6068,2.6063,2.6071,2.6072,2.607,2.6066,2.605,2.6049,2.6049,2.6049,0,2.6233,2.6209,2.6223,2.62,2.6195,2.621,2.619,2.6198,2.6181,2.619,2.6191,2.6164,2.6167,2.6142,2.614,2.6127,2.6152,2.614,2.6156,2.6152,2.6179,2.6177,2.6269,2.628,2.6186,2.6187,2.6188,0,2.6276,2.6288,2.6267,2.6269,2.6261,2.6265,2.6264,2.6235,2.6235,2.6223,2.6233,2.6233,2.6231,2.6237,2.6218,2.6217,2.6205,2.6237,2.6204,2.6212,2.6205,2.6205,2.6206,2.6244,2.6245,2.6246,2.6247,0,2.6355,2.6342,2.6342,2.6338,2.6338,2.6334,2.6327,2.6331,2.6299,2.6301,2.6303,2.6302,2.63,2.6301,2.6295,2.6286,2.6262,2.6258,2.6263,2.6272,2.628,2.6276,2.6175,2.6256,2.6255,2.6254,2.6254,2.6253,2.6416,2.6425,2.6412,2.6413,2.6405,2.6399,2.6406,2.639,2.6391,2.6387,2.637,2.6375,2.6363,2.6354,2.6347,2.6351,2.6335,2.6343,2.6346,2.6348,2.6353,2.628,2.635,2.6349,2.6349,2.6349,2.6349,0,2.6493,2.6483,2.6484,2.6476,2.6477,2.6453,2.6445,2.6447,2.6452,2.6443,2.6442,2.6445,2.6446,2.6427,2.6425,2.6432,2.642,2.6432,2.6431,2.643,2.6367,2.6362,2.6441,2.6441,2.6441,2.6441,2.6441,2.6441,2.6534,2.6548,2.6534,2.6545,2.6534,2.6539,2.6536,2.6531,2.6524,2.6528,2.6528,2.6516,2.6503,2.65,2.6499,2.6494,2.6495,2.651,2.6501,2.6443,2.6434,2.6425,2.6421,2.6511,2.6511,2.6563,2.6564,2.6564]}]]